Flag for Aruba Weather past 2 weeks in Oranjestad, Aruba

Now
86 °F

Passing clouds.


Feels Like: 97 °F
Forecast: N/A
Wind: 18 mph from Northeast

Location: Queen Beatrix Airport - Aruba

Current Time: Sep 16, 2014 at 6:36:20 PM

Latest Report: Sep 16, 2014 at 6:00 PM


Visibility: N/A

Pressure: 29.80 "Hg

Humidity: 75%

Dew point: 77 °F

Location of OranjestadLocation

Historic Weather in Oranjestad — Graph

°F

Oranjestad temperature yesterday

Maximum temperature yesterday: 88 °F (at 3:00 PM)
Minimum temperature yesterday: 81 °F (at 3:00 AM)
Average temperature yesterday: 84 °F

Past Weeks' High & Low Weather Summary

 TemperatureHumidityPressure
High93 °F (Sep 4, 2:00 PM)100% (Sep 12, 12:00 PM)29.98 "Hg (Sep 12, 12:00 PM)
Low75 °F (Sep 12, 12:00 PM)53% (Sep 5, 3:00 PM)29.74 "Hg (Sep 6, 5:00 PM)
Average85 °F72%29.85 "Hg
* Reported Sep 1 5:00 PM — Sep 16 5:00 PM, Oranjestad, Weather by CustomWeather, © 2014

Note: Actual official high and low records may vary slightly from our data, if they occured in-between our weather recording intervals... More about our weather records

Advertising

Oranjestad weather history for previous 24 hours

 ConditionsComfort  
Time TempWeatherWind HumidityBarometerVisibility
5:00 PM
Sep 16
88 °FPassing clouds.17 mph70%29.80 "HgN/A
4:00 PM90 °FScattered clouds.18 mph63%29.80 "HgN/A
3:00 PM90 °FScattered clouds.16 mph63%29.83 "HgN/A
2:00 PM90 °FPartly sunny.16 mph63%29.86 "HgN/A
1:00 PM90 °FScattered clouds.16 mph67%29.89 "HgN/A
12:00 PM91 °FScattered clouds.16 mph59%29.92 "HgN/A
11:00 AM90 °FScattered clouds.17 mph63%29.95 "HgN/A
10:00 AM88 °FPassing clouds.15 mph66%29.95 "HgN/A
9:00 AM86 °FPassing clouds.15 mph66%29.95 "HgN/A
8:00 AM84 °FScattered clouds.14 mph74%29.92 "HgN/A
7:00 AM81 °FScattered clouds.6 mph84%29.92 "HgN/A
6:00 AM81 °FPassing clouds.8 mph84%29.89 "HgN/A
5:00 AM81 °FPassing clouds.8 mph84%29.86 "HgN/A
4:00 AM82 °FPassing clouds.9 mph84%29.86 "HgN/A
2:00 AM82 °FPassing clouds.13 mph84%29.89 "HgN/A
1:00 AM82 °FPassing clouds.13 mph84%29.92 "HgN/A
12:00 AM82 °FPassing clouds.14 mph84%29.92 "HgN/A
11:00 PM
Sep 15
82 °FPassing clouds.14 mph84%29.92 "HgN/A
10:00 PM84 °FPassing clouds.13 mph79%29.95 "HgN/A
9:00 PM84 °FPassing clouds.15 mph79%29.92 "HgN/A
8:00 PM84 °FPassing clouds.14 mph79%29.89 "HgN/A
7:00 PM84 °FPassing clouds.13 mph79%29.89 "HgN/A
6:00 PM84 °FPassing clouds.14 mph79%29.86 "HgN/A
Weather by CustomWeather, © 2014

See weather overviewHow to use our weather pages